Time,TemperatureF,DewpointF,PressureIn,WindDirection,WindDirectionDegrees,WindSpeedMPH,WindSpeedGustMPH,Humidity,HourlyPrecipIn,Conditions,Clouds,dailyrainin,SoftwareType,DateUTC
2013-01-23 00:04:00,13.2,-6.6,-100.00,ESE,115,2.8,9.6,36,0.00,,,0.00,WSDL version 423,2013-01-23 05:04:00,
2013-01-23 00:07:00,13.1,-6.7,-100.00,SE,124,4.8,9.6,36,0.00,,,0.00,WSDL version 423,2013-01-23 05:07:00,
2013-01-23 00:13:00,12.9,-6.8,-100.00,ESE,116,3.6,8.5,36,0.00,,,0.00,WSDL version 423,2013-01-23 05:13:00,
2013-01-23 00:19:00,12.9,-6.8,-100.00,ESE,116,3.9,7.6,36,0.00,,,0.00,WSDL version 423,2013-01-23 05:19:00,
2013-01-23 00:25:00,12.8,-6.9,-100.00,SE,135,4.5,7.4,36,0.00,,,0.00,WSDL version 423,2013-01-23 05:25:00,
2013-01-23 00:28:00,12.9,-6.9,-100.00,ESE,104,3.9,6.7,36,0.00,,,0.00,WSDL version 423,2013-01-23 05:28:00,
2013-01-23 00:34:00,12.7,-7.0,-100.00,ESE,121,1.5,6.5,36,0.00,,,0.00,WSDL version 423,2013-01-23 05:34:00,
2013-01-23 00:40:00,12.6,-7.1,-100.00,SE,132,4.1,8.7,36,0.00,,,0.00,WSDL version 423,2013-01-23 05:40:00,
2013-01-23 00:46:00,12.6,-7.2,-100.00,ESE,110,3.6,8.7,36,0.00,,,0.00,WSDL version 423,2013-01-23 05:46:00,
2013-01-23 00:52:00,12.6,-7.2,-100.00,ESE,116,3.4,8.1,36,0.00,,,0.00,WSDL version 423,2013-01-23 05:52:00,
2013-01-23 00:58:00,12.3,-7.4,-100.00,SSE,148,1.8,6.3,36,0.00,,,0.00,WSDL version 423,2013-01-23 05:58:00,
2013-01-23 01:04:00,12.3,-7.4,-100.00,East,98,2.4,8.5,36,0.00,,,0.00,WSDL version 423,2013-01-23 06:04:00,
2013-01-23 01:10:00,12.2,-7.5,-100.00,East,101,6.2,13.0,36,0.00,,,0.00,WSDL version 423,2013-01-23 06:10:00,
2013-01-23 01:16:00,12.2,-7.5,-100.00,SE,125,3.2,13.0,36,0.00,,,0.00,WSDL version 423,2013-01-23 06:16:00,
2013-01-23 01:22:00,12.0,-7.6,-100.00,ESE,115,4.4,5.6,36,0.00,,,0.00,WSDL version 423,2013-01-23 06:22:00,
2013-01-23 01:28:00,12.0,-7.7,-100.00,ESE,123,2.7,5.6,36,0.00,,,0.00,WSDL version 423,2013-01-23 06:28:00,
2013-01-23 01:34:00,12.0,-7.7,-100.00,SE,141,2.7,4.7,36,0.00,,,0.00,WSDL version 423,2013-01-23 06:34:00,
2013-01-23 01:40:00,12.0,-7.7,-100.00,SE,132,5.1,10.5,36,0.00,,,0.00,WSDL version 423,2013-01-23 06:40:00,
2013-01-23 01:46:00,11.9,-7.8,-100.00,SE,124,2.6,10.5,36,0.00,,,0.00,WSDL version 423,2013-01-23 06:46:00,
2013-01-23 01:52:00,11.8,-7.8,-100.00,ESE,119,3.8,7.4,36,0.00,,,0.00,WSDL version 423,2013-01-23 06:52:00,
2013-01-23 01:58:00,11.8,-7.9,-100.00,ESE,107,1.8,7.4,36,0.00,,,0.00,WSDL version 423,2013-01-23 06:58:00,
2013-01-23 02:04:00,11.8,-7.9,-100.00,ESE,113,3.0,6.3,36,0.00,,,0.00,WSDL version 423,2013-01-23 07:04:00,
2013-01-23 02:10:00,11.8,-7.8,-100.00,ESE,106,3.5,6.3,36,0.00,,,0.00,WSDL version 423,2013-01-23 07:10:00,
2013-01-23 02:16:00,11.7,-8.0,-100.00,East,98,2.5,6.0,36,0.00,,,0.00,WSDL version 423,2013-01-23 07:16:00,
2013-01-23 02:22:00,11.7,-8.0,-100.00,ESE,118,3.6,6.5,36,0.00,,,0.00,WSDL version 423,2013-01-23 07:22:00,
2013-01-23 02:28:00,11.7,-8.0,-100.00,SE,130,2.6,6.5,36,0.00,,,0.00,WSDL version 423,2013-01-23 07:28:00,
2013-01-23 02:36:00,11.7,-8.0,-100.00,East,96,2.8,7.4,36,0.00,,,0.00,WSDL version 423,2013-01-23 07:36:00,
2013-01-23 02:42:00,11.7,-8.0,-100.00,ESE,109,3.3,7.4,36,0.00,,,0.00,WSDL version 423,2013-01-23 07:42:00,
2013-01-23 02:48:00,11.7,-8.0,-100.00,SE,133,3.5,6.9,36,0.00,,,0.00,WSDL version 423,2013-01-23 07:48:00,
2013-01-23 02:54:00,11.7,-8.0,-100.00,ESE,103,2.2,6.9,36,0.00,,,0.00,WSDL version 423,2013-01-23 07:54:00,
2013-01-23 03:00:00,11.5,-8.2,-100.00,SE,145,1.8,4.9,36,0.00,,,0.00,WSDL version 423,2013-01-23 08:00:00,
2013-01-23 03:06:00,11.5,-8.2,-100.00,ESE,120,2.9,5.8,36,0.00,,,0.00,WSDL version 423,2013-01-23 08:06:00,
2013-01-23 03:12:00,11.4,-8.3,-100.00,ESE,109,3.0,6.0,36,0.00,,,0.00,WSDL version 423,2013-01-23 08:12:00,
2013-01-23 03:18:00,11.3,-8.3,-100.00,SSE,148,1.8,4.3,36,0.00,,,0.00,WSDL version 423,2013-01-23 08:18:00,
2013-01-23 03:26:00,11.1,-8.5,-100.00,SE,127,1.8,4.9,36,0.00,,,0.00,WSDL version 423,2013-01-23 08:26:00,
2013-01-23 03:32:00,11.1,-8.5,-100.00,SE,125,2.2,4.9,36,0.00,,,0.00,WSDL version 423,2013-01-23 08:32:00,
2013-01-23 03:38:00,11.1,-8.5,-100.00,SE,125,1.8,5.6,36,0.00,,,0.00,WSDL version 423,2013-01-23 08:38:00,
2013-01-23 03:44:00,11.1,-8.5,-100.00,SE,129,2.4,10.1,36,0.00,,,0.00,WSDL version 423,2013-01-23 08:44:00,
2013-01-23 03:50:00,11.1,-8.5,-100.00,East,96,2.1,10.1,36,0.00,,,0.00,WSDL version 423,2013-01-23 08:50:00,
2013-01-23 03:58:00,11.1,-8.5,-100.00,ESE,103,3.4,5.8,36,0.00,,,0.00,WSDL version 423,2013-01-23 08:58:00,
2013-01-23 04:06:00,11.0,-8.6,-100.00,SE,125,1.5,5.8,36,0.00,,,0.00,WSDL version 423,2013-01-23 09:06:00,
2013-01-23 04:12:00,10.9,-8.7,-100.00,ESE,121,2.7,5.6,36,0.00,,,0.00,WSDL version 423,2013-01-23 09:12:00,
2013-01-23 04:18:00,10.9,-8.7,-100.00,ESE,110,2.9,6.5,36,0.00,,,0.00,WSDL version 423,2013-01-23 09:18:00,
2013-01-23 04:24:00,10.9,-8.7,-100.00,SE,127,1.2,6.5,36,0.00,,,0.00,WSDL version 423,2013-01-23 09:24:00,
2013-01-23 04:30:00,10.8,-8.8,-100.00,SE,132,2.6,6.0,36,0.00,,,0.00,WSDL version 423,2013-01-23 09:30:00,
2013-01-23 04:36:00,10.8,-8.8,-100.00,SE,146,2.0,6.0,36,0.00,,,0.00,WSDL version 423,2013-01-23 09:36:00,
2013-01-23 04:42:00,10.8,-8.8,-100.00,ESE,123,1.6,4.3,36,0.00,,,0.00,WSDL version 423,2013-01-23 09:42:00,
2013-01-23 04:48:00,10.7,-8.9,-100.00,SE,132,2.1,4.3,36,0.00,,,0.00,WSDL version 423,2013-01-23 09:48:00,
2013-01-23 04:54:00,10.6,-9.0,-100.00,SE,128,2.2,5.6,36,0.00,,,0.00,WSDL version 423,2013-01-23 09:54:00,
2013-01-23 05:00:00,10.6,-9.0,-100.00,ESE,113,1.9,6.5,36,0.00,,,0.00,WSDL version 423,2013-01-23 10:00:00,
2013-01-23 05:06:00,10.6,-9.0,-100.00,SSE,155,2.9,4.9,36,0.00,,,0.00,WSDL version 423,2013-01-23 10:06:00,
2013-01-23 05:12:00,10.6,-9.0,-100.00,SSE,155,1.7,6.3,36,0.00,,,0.00,WSDL version 423,2013-01-23 10:12:00,
2013-01-23 05:18:00,10.4,-9.1,-100.00,ESE,118,2.2,6.3,36,0.00,,,0.00,WSDL version 423,2013-01-23 10:18:00,
2013-01-23 05:24:00,10.4,-9.2,-100.00,SE,141,0.5,4.0,36,0.00,,,0.00,WSDL version 423,2013-01-23 10:24:00,
2013-01-23 05:30:00,10.4,-9.2,-100.00,SSE,154,1.7,7.4,36,0.00,,,0.00,WSDL version 423,2013-01-23 10:30:00,
2013-01-23 05:36:00,10.4,-9.2,-100.00,SE,125,3.6,7.8,36,0.00,,,0.00,WSDL version 423,2013-01-23 10:36:00,
2013-01-23 05:42:00,10.4,-9.2,-100.00,ESE,118,2.8,7.8,36,0.00,,,0.00,WSDL version 423,2013-01-23 10:42:00,
2013-01-23 05:48:00,10.4,-9.2,-100.00,SE,127,3.8,5.8,36,0.00,,,0.00,WSDL version 423,2013-01-23 10:48:00,
2013-01-23 05:54:00,10.4,-9.2,-100.00,SE,132,2.3,5.8,36,0.00,,,0.00,WSDL version 423,2013-01-23 10:54:00,
2013-01-23 06:00:00,10.4,-9.2,-100.00,SE,138,1.3,4.5,36,0.00,,,0.00,WSDL version 423,2013-01-23 11:00:00,
2013-01-23 06:06:00,10.4,-9.2,-100.00,ESE,120,1.8,4.9,36,0.00,,,0.00,WSDL version 423,2013-01-23 11:06:00,
2013-01-23 06:12:00,10.4,-9.2,-100.00,SE,129,2.1,4.9,36,0.00,,,0.00,WSDL version 423,2013-01-23 11:12:00,
2013-01-23 06:18:00,10.3,-9.3,-100.00,SE,138,1.1,4.9,36,0.00,,,0.00,WSDL version 423,2013-01-23 11:18:00,
2013-01-23 06:24:00,10.2,-9.3,-100.00,East,96,2.2,4.9,36,0.00,,,0.00,WSDL version 423,2013-01-23 11:24:00,
2013-01-23 06:30:00,10.2,-9.3,-100.00,SE,129,2.5,6.7,36,0.00,,,0.00,WSDL version 423,2013-01-23 11:30:00,
2013-01-23 06:36:00,10.2,-9.3,-100.00,SE,141,2.1,6.7,36,0.00,,,0.00,WSDL version 423,2013-01-23 11:36:00,
2013-01-23 06:42:00,10.2,-9.3,-100.00,SSE,152,2.2,6.3,36,0.00,,,0.00,WSDL version 423,2013-01-23 11:42:00,
2013-01-23 06:48:00,10.2,-9.3,-100.00,SE,133,1.8,6.3,36,0.00,,,0.00,WSDL version 423,2013-01-23 11:48:00,
2013-01-23 06:54:00,10.1,-9.4,-100.00,SE,125,0.8,5.4,36,0.00,,,0.00,WSDL version 423,2013-01-23 11:54:00,
2013-01-23 07:00:00,10.0,-9.5,-100.00,SE,125,2.7,4.3,36,0.00,,,0.00,WSDL version 423,2013-01-23 12:00:00,
2013-01-23 07:06:00,10.0,-9.5,-100.00,SE,133,2.3,4.3,36,0.00,,,0.00,WSDL version 423,2013-01-23 12:06:00,
2013-01-23 07:12:00,10.0,-9.5,-100.00,ESE,120,1.6,4.3,36,0.00,,,0.00,WSDL version 423,2013-01-23 12:12:00,
2013-01-23 07:18:00,10.0,-9.5,-100.00,SE,130,1.1,4.5,36,0.00,,,0.00,WSDL version 423,2013-01-23 12:18:00,
2013-01-23 07:24:00,10.0,-9.5,-100.00,SE,135,1.3,3.6,36,0.00,,,0.00,WSDL version 423,2013-01-23 12:24:00,
2013-01-23 07:30:00,10.0,-9.5,-100.00,SE,129,2.3,4.9,36,0.00,,,0.00,WSDL version 423,2013-01-23 12:30:00,
2013-01-23 07:36:00,10.1,-9.4,-100.00,East,93,2.0,4.9,36,0.00,,,0.00,WSDL version 423,2013-01-23 12:36:00,
2013-01-23 07:42:00,10.2,-9.3,-100.00,SE,132,2.4,4.3,36,0.00,,,0.00,WSDL version 423,2013-01-23 12:42:00,
2013-01-23 07:48:00,10.3,-9.2,-100.00,East,100,3.2,5.4,36,0.00,,,0.00,WSDL version 423,2013-01-23 12:48:00,
2013-01-23 07:54:00,10.4,-9.2,-100.00,SE,145,2.5,5.4,36,0.00,,,0.00,WSDL version 423,2013-01-23 12:54:00,
2013-01-23 08:00:00,10.6,-8.9,-100.00,ESE,115,2.7,6.9,36,0.00,,,0.00,WSDL version 423,2013-01-23 13:00:00,
2013-01-23 08:06:00,10.8,-8.8,-100.00,ESE,106,2.3,4.3,36,0.00,,,0.00,WSDL version 423,2013-01-23 13:06:00,
2013-01-23 08:12:00,11.0,-8.6,-100.00,SE,141,2.3,5.6,36,0.00,,,0.00,WSDL version 423,2013-01-23 13:12:00,
2013-01-23 08:18:00,11.2,-8.4,-100.00,SSE,158,4.1,7.6,36,0.00,,,0.00,WSDL version 423,2013-01-23 13:18:00,
2013-01-23 08:24:00,11.4,-8.2,-100.00,ESE,122,4.2,7.6,36,0.00,,,0.00,WSDL version 423,2013-01-23 13:24:00,
2013-01-23 08:30:00,11.7,-8.0,-100.00,SE,127,1.3,5.8,36,0.00,,,0.00,WSDL version 423,2013-01-23 13:30:00,
2013-01-23 08:36:00,12.0,-7.7,-100.00,East,100,3.0,6.0,36,0.00,,,0.00,WSDL version 423,2013-01-23 13:36:00,
2013-01-23 08:42:00,12.1,-7.6,-100.00,SE,124,3.5,8.5,36,0.00,,,0.00,WSDL version 423,2013-01-23 13:42:00,
2013-01-23 08:48:00,12.3,-7.4,-100.00,ESE,103,2.6,5.8,36,0.00,,,0.00,WSDL version 423,2013-01-23 13:48:00,
2013-01-23 08:54:00,12.6,-7.2,-100.00,ESE,106,3.2,7.4,36,0.00,,,0.00,WSDL version 423,2013-01-23 13:54:00,
2013-01-23 09:00:00,12.7,-7.0,-100.00,ESE,103,3.6,7.4,36,0.00,,,0.00,WSDL version 423,2013-01-23 14:00:00,
2013-01-23 09:06:00,12.9,-6.8,-100.00,SSE,148,3.7,9.6,36,0.00,,,0.00,WSDL version 423,2013-01-23 14:06:00,
2013-01-23 09:12:00,13.3,-6.5,-100.00,ESE,107,3.6,7.8,36,0.00,,,0.00,WSDL version 423,2013-01-23 14:12:00,
2013-01-23 09:18:00,13.6,-6.3,-100.00,SE,138,2.6,6.5,36,0.00,,,0.00,WSDL version 423,2013-01-23 14:18:00,
2013-01-23 09:24:00,13.9,-5.1,-100.00,SE,129,4.0,10.5,44,0.00,,,0.00,WSDL version 423,2013-01-23 14:24:00,
2013-01-23 09:30:00,14.2,-1.9,-100.00,ESE,104,3.0,10.5,44,0.00,,,0.00,WSDL version 423,2013-01-23 14:30:00,
2013-01-23 09:36:00,14.4,-1.9,-100.00,SE,125,4.8,12.3,43,0.00,,,0.00,WSDL version 423,2013-01-23 14:36:00,
2013-01-23 09:42:00,14.7,-2.1,-100.00,ESE,119,5.2,12.3,42,0.00,,,0.00,WSDL version 423,2013-01-23 14:42:00,
2013-01-23 09:48:00,15.0,-2.0,-100.00,SE,130,2.7,9.6,42,0.00,,,0.00,WSDL version 423,2013-01-23 14:48:00,
2013-01-23 09:54:00,15.5,-1.6,-100.00,SE,139,3.2,6.5,42,0.00,,,0.00,WSDL version 423,2013-01-23 14:54:00,
2013-01-23 10:00:00,15.9,-1.4,-100.00,ESE,115,4.5,10.3,41,0.00,,,0.00,WSDL version 423,2013-01-23 15:00:00,
2013-01-23 10:06:00,16.0,-1.6,-100.00,SE,141,4.8,13.2,41,0.00,,,0.00,WSDL version 423,2013-01-23 15:06:00,
2013-01-23 10:12:00,16.3,-1.8,-100.00,ESE,122,5.2,9.4,40,0.00,,,0.00,WSDL version 423,2013-01-23 15:12:00,
2013-01-23 10:18:00,16.2,-2.3,-100.00,ESE,121,3.7,9.4,39,0.00,,,0.00,WSDL version 423,2013-01-23 15:18:00,
2013-01-23 10:24:00,16.8,-1.7,-100.00,ENE,76,3.9,10.7,39,0.00,,,0.00,WSDL version 423,2013-01-23 15:24:00,
2013-01-23 10:30:00,16.9,-2.1,-100.00,ESE,123,3.7,10.3,38,0.00,,,0.00,WSDL version 423,2013-01-23 15:30:00,
2013-01-23 10:36:00,16.9,-2.1,-100.00,SE,135,4.1,10.3,39,0.00,,,0.00,WSDL version 423,2013-01-23 15:36:00,
2013-01-23 10:42:00,17.4,-1.4,-100.00,SSE,163,4.4,10.3,38,0.00,,,0.00,WSDL version 423,2013-01-23 15:42:00,
2013-01-23 10:48:00,17.5,-1.6,-100.00,ESE,110,2.7,10.3,38,0.00,,,0.00,WSDL version 423,2013-01-23 15:48:00,
2013-01-23 10:54:00,18.0,-1.7,-100.00,East,93,2.9,5.4,37,0.00,,,0.00,WSDL version 423,2013-01-23 15:54:00,
2013-01-23 11:00:00,18.4,-1.4,-100.00,East,98,5.4,8.1,36,0.00,,,0.00,WSDL version 423,2013-01-23 16:00:00,
2013-01-23 11:06:00,18.5,-1.7,-100.00,East,100,4.7,8.1,36,0.00,,,0.00,WSDL version 423,2013-01-23 16:06:00,
2013-01-23 11:12:00,18.5,-2.2,-100.00,SE,139,4.8,10.1,35,0.00,,,0.00,WSDL version 423,2013-01-23 16:12:00,
2013-01-23 11:18:00,18.7,-2.2,-100.00,SE,124,4.8,13.0,35,0.00,,,0.00,WSDL version 423,2013-01-23 16:18:00,
2013-01-23 11:24:00,19.4,-1.5,-100.00,SE,135,4.8,13.0,35,0.00,,,0.00,WSDL version 423,2013-01-23 16:24:00,
2013-01-23 11:30:00,19.3,-1.8,-100.00,ESE,104,5.2,8.5,34,0.00,,,0.00,WSDL version 423,2013-01-23 16:30:00,
2013-01-23 11:36:00,19.6,-1.7,-100.00,SE,139,4.6,8.1,34,0.00,,,0.00,WSDL version 423,2013-01-23 16:36:00,
2013-01-23 11:42:00,19.5,-1.9,-100.00,ESE,116,5.6,11.2,34,0.00,,,0.00,WSDL version 423,2013-01-23 16:42:00,
2013-01-23 11:48:00,20.0,-1.4,-100.00,ESE,122,2.6,11.2,34,0.00,,,0.00,WSDL version 423,2013-01-23 16:48:00,
2013-01-23 11:54:00,19.6,-1.8,-100.00,SE,125,3.7,12.5,34,0.00,,,0.00,WSDL version 423,2013-01-23 16:54:00,
2013-01-23 12:00:00,19.6,-1.8,-100.00,ESE,110,3.1,9.8,34,0.00,,,0.00,WSDL version 423,2013-01-23 17:00:00,
2013-01-23 12:06:00,19.8,-1.6,-100.00,ESE,109,4.3,8.1,34,0.00,,,0.00,WSDL version 423,2013-01-23 17:06:00,
2013-01-23 12:12:00,20.4,-1.1,-100.00,East,100,4.1,8.7,34,0.00,,,0.00,WSDL version 423,2013-01-23 17:12:00,
2013-01-23 12:18:00,20.6,-0.9,-100.00,SE,145,6.2,10.7,34,0.00,,,0.00,WSDL version 423,2013-01-23 17:18:00,
2013-01-23 12:24:00,20.4,-1.1,-100.00,SSE,167,3.0,10.7,34,0.00,,,0.00,WSDL version 423,2013-01-23 17:24:00,
2013-01-23 12:30:00,20.8,-0.7,-100.00,SE,131,3.9,7.8,34,0.00,,,0.00,WSDL version 423,2013-01-23 17:30:00,
2013-01-23 12:36:00,21.2,-0.5,-100.00,SE,131,3.3,7.8,33,0.00,,,0.00,WSDL version 423,2013-01-23 17:36:00,
2013-01-23 12:42:00,21.1,-1.0,-100.00,East,84,4.7,8.1,33,0.00,,,0.00,WSDL version 423,2013-01-23 17:42:00,
2013-01-23 12:48:00,21.2,-0.9,-100.00,SE,125,5.7,13.9,33,0.00,,,0.00,WSDL version 423,2013-01-23 17:48:00,
2013-01-23 12:54:00,21.1,-1.0,-100.00,SE,124,4.6,13.9,33,0.00,,,0.00,WSDL version 423,2013-01-23 17:54:00,
2013-01-23 14:03:00,20.6,-1.1,-100.00,SE,130,5.2,12.5,33,0.00,,,0.00,WSDL version 423,2013-01-23 19:03:00,
2013-01-23 14:09:00,20.1,-1.9,-100.00,East,96,4.2,12.5,33,0.00,,,0.00,WSDL version 423,2013-01-23 19:09:00,
2013-01-23 14:15:00,20.0,-1.4,-100.00,SSW,203,2.9,8.1,34,0.00,,,0.00,WSDL version 423,2013-01-23 19:15:00,
2013-01-23 14:21:00,19.9,-1.9,-100.00,SE,125,4.8,9.2,33,0.00,,,0.00,WSDL version 423,2013-01-23 19:21:00,
2013-01-23 14:27:00,19.8,-2.2,-100.00,ESE,119,5.5,9.2,33,0.00,,,0.00,WSDL version 423,2013-01-23 19:27:00,
2013-01-23 14:33:00,20.0,-1.9,-100.00,ESE,121,2.8,7.8,34,0.00,,,0.00,WSDL version 423,2013-01-23 19:33:00,
2013-01-23 14:39:00,20.3,-1.5,-100.00,SSE,167,3.2,6.3,33,0.00,,,0.00,WSDL version 423,2013-01-23 19:39:00,
2013-01-23 14:45:00,20.7,-1.4,-100.00,ESE,115,4.3,6.3,33,0.00,,,0.00,WSDL version 423,2013-01-23 19:45:00,
2013-01-23 14:51:00,20.7,-1.4,-100.00,SE,143,5.6,7.8,33,0.00,,,0.00,WSDL version 423,2013-01-23 19:51:00,
2013-01-23 14:57:00,20.3,-1.7,-100.00,East,84,3.1,8.5,33,0.00,,,0.00,WSDL version 423,2013-01-23 19:57:00,
2013-01-23 15:03:00,20.3,-1.7,-100.00,SE,143,3.2,8.7,33,0.00,,,0.00,WSDL version 423,2013-01-23 20:03:00,
2013-01-23 15:09:00,20.3,-1.7,-100.00,SE,143,2.9,6.0,33,0.00,,,0.00,WSDL version 423,2013-01-23 20:09:00,
2013-01-23 15:15:00,20.8,-1.3,-100.00,East,84,3.5,8.7,33,0.00,,,0.00,WSDL version 423,2013-01-23 20:15:00,
2013-01-23 15:21:00,21.1,-1.0,-100.00,SE,135,3.8,8.7,33,0.00,,,0.00,WSDL version 423,2013-01-23 20:21:00,
2013-01-23 15:27:00,21.1,-1.0,-100.00,ESE,104,3.3,10.7,33,0.00,,,0.00,WSDL version 423,2013-01-23 20:27:00,
2013-01-23 15:33:00,21.2,-0.9,-100.00,SSE,158,4.5,10.7,33,0.00,,,0.00,WSDL version 423,2013-01-23 20:33:00,
2013-01-23 15:39:00,20.6,-1.5,-100.00,SE,135,6.0,9.6,33,0.00,,,0.00,WSDL version 423,2013-01-23 20:39:00,
2013-01-23 15:45:00,20.3,-1.7,-100.00,SE,143,3.7,8.1,33,0.00,,,0.00,WSDL version 423,2013-01-23 20:45:00,
2013-01-23 15:51:00,20.2,-1.8,-100.00,SSE,149,4.7,11.0,33,0.00,,,0.00,WSDL version 423,2013-01-23 20:51:00,
2013-01-23 15:57:00,20.2,-1.8,-100.00,SE,138,5.4,10.5,33,0.00,,,0.00,WSDL version 423,2013-01-23 20:57:00,
2013-01-23 16:03:00,19.9,-2.1,-100.00,ESE,106,5.3,10.5,33,0.00,,,0.00,WSDL version 423,2013-01-23 21:03:00,
2013-01-23 16:09:00,19.8,-2.2,-100.00,SE,135,4.4,7.8,33,0.00,,,0.00,WSDL version 423,2013-01-23 21:09:00,
2013-01-23 16:15:00,20.1,-2.0,-100.00,ESE,113,4.8,7.8,33,0.00,,,0.00,WSDL version 423,2013-01-23 21:15:00,
2013-01-23 16:21:00,20.0,-2.0,-100.00,SE,132,3.2,6.5,33,0.00,,,0.00,WSDL version 423,2013-01-23 21:21:00,
2013-01-23 16:27:00,19.8,-2.1,-100.00,SE,130,4.1,9.2,33,0.00,,,0.00,WSDL version 423,2013-01-23 21:27:00,
2013-01-23 16:33:00,19.7,-2.3,-100.00,ESE,118,4.2,9.2,33,0.00,,,0.00,WSDL version 423,2013-01-23 21:33:00,
2013-01-23 16:39:00,19.4,-2.5,-100.00,SE,129,3.5,7.6,33,0.00,,,0.00,WSDL version 423,2013-01-23 21:39:00,
2013-01-23 16:45:00,19.1,-2.8,-100.00,SE,143,4.9,8.5,33,0.00,,,0.00,WSDL version 423,2013-01-23 21:45:00,
2013-01-23 16:51:00,18.6,-3.2,-100.00,ESE,110,2.8,10.5,33,0.00,,,0.00,WSDL version 423,2013-01-23 21:51:00,
2013-01-23 16:57:00,18.3,-3.5,-100.00,SE,125,3.1,10.5,33,0.00,,,0.00,WSDL version 423,2013-01-23 21:57:00,
2013-01-23 17:03:00,18.1,-3.8,-100.00,East,93,3.0,7.8,33,0.00,,,0.00,WSDL version 423,2013-01-23 22:03:00,
2013-01-23 17:09:00,17.8,-3.8,-100.00,ESE,120,2.0,8.1,33,0.00,,,0.00,WSDL version 423,2013-01-23 22:09:00,
2013-01-23 17:15:00,17.6,-3.7,-100.00,ESE,109,1.8,8.1,34,0.00,,,0.00,WSDL version 423,2013-01-23 22:15:00,
2013-01-23 17:21:00,17.4,-3.8,-100.00,ESE,113,3.4,6.0,34,0.00,,,0.00,WSDL version 423,2013-01-23 22:21:00,
2013-01-23 17:27:00,17.4,-3.8,-100.00,ESE,113,5.7,8.5,34,0.00,,,0.00,WSDL version 423,2013-01-23 22:27:00,
2013-01-23 17:33:00,17.3,-3.9,-100.00,ESE,115,3.7,8.5,34,0.00,,,0.00,WSDL version 423,2013-01-23 22:33:00,
2013-01-23 17:39:00,17.2,-4.0,-100.00,SE,125,3.1,6.5,34,0.00,,,0.00,WSDL version 423,2013-01-23 22:39:00,
2013-01-23 17:45:00,17.1,-4.0,-100.00,SE,141,2.1,4.9,34,0.00,,,0.00,WSDL version 423,2013-01-23 22:45:00,
2013-01-23 17:51:00,16.9,-4.2,-100.00,SE,135,2.2,4.9,34,0.00,,,0.00,WSDL version 423,2013-01-23 22:51:00,
2013-01-23 17:57:00,16.9,-4.3,-100.00,SE,132,2.5,4.9,34,0.00,,,0.00,WSDL version 423,2013-01-23 22:57:00,
2013-01-23 18:03:00,16.7,-4.4,-100.00,SE,132,3.5,8.1,34,0.00,,,0.00,WSDL version 423,2013-01-23 23:03:00,
2013-01-23 18:09:00,16.7,-4.4,-100.00,ESE,116,1.2,8.1,34,0.00,,,0.00,WSDL version 423,2013-01-23 23:09:00,
2013-01-23 18:15:00,16.7,-4.4,-100.00,SE,145,2.9,5.4,34,0.00,,,0.00,WSDL version 423,2013-01-23 23:15:00,
2013-01-23 18:21:00,16.6,-4.0,-100.00,SE,145,1.5,5.8,35,0.00,,,0.00,WSDL version 423,2013-01-23 23:21:00,
2013-01-23 18:27:00,16.5,-4.1,-100.00,SE,135,2.0,4.3,35,0.00,,,0.00,WSDL version 423,2013-01-23 23:27:00,
2013-01-23 18:33:00,16.3,-4.2,-100.00,SE,125,1.7,4.0,35,0.00,,,0.00,WSDL version 423,2013-01-23 23:33:00,
2013-01-23 18:39:00,16.2,-4.3,-100.00,ESE,113,2.5,5.8,35,0.00,,,0.00,WSDL version 423,2013-01-23 23:39:00,
2013-01-23 18:45:00,16.2,-4.4,-100.00,SE,127,1.6,5.8,35,0.00,,,0.00,WSDL version 423,2013-01-23 23:45:00,
2013-01-23 18:51:00,16.0,-4.5,-100.00,ESE,118,0.5,2.9,35,0.00,,,0.00,WSDL version 423,2013-01-23 23:51:00,
2013-01-23 18:57:00,16.0,-4.6,-100.00,ESE,110,1.3,2.7,35,0.00,,,0.00,WSDL version 423,2013-01-23 23:57:00,
2013-01-23 19:03:00,16.0,-4.6,-100.00,ESE,106,1.7,3.4,35,0.00,,,0.00,WSDL version 423,2013-01-24 00:03:00,
2013-01-23 19:09:00,15.8,-4.2,-100.00,ESE,115,1.5,3.4,36,0.00,,,0.00,WSDL version 423,2013-01-24 00:09:00,
2013-01-23 19:15:00,15.6,-4.3,-100.00,ESE,120,1.1,4.0,36,0.00,,,0.00,WSDL version 423,2013-01-24 00:15:00,
2013-01-23 19:21:00,15.6,-4.4,-100.00,ESE,105,1.8,4.0,36,0.00,,,0.00,WSDL version 423,2013-01-24 00:21:00,
2013-01-23 19:27:00,15.4,-4.5,-100.00,SE,135,0.9,3.1,36,0.00,,,0.00,WSDL version 423,2013-01-24 00:27:00,
2013-01-23 19:33:00,15.4,-4.6,-100.00,SE,125,0.0,3.1,36,0.00,,,0.00,WSDL version 423,2013-01-24 00:33:00,
2013-01-23 19:39:00,15.3,-4.7,-100.00,SE,128,0.0,2.5,36,0.00,,,0.00,WSDL version 423,2013-01-24 00:39:00,
2013-01-23 19:45:00,15.3,-4.5,-100.00,ESE,110,1.1,2.7,37,0.00,,,0.00,WSDL version 423,2013-01-24 00:45:00,
2013-01-23 19:51:00,15.3,-4.1,-100.00,ESE,103,1.0,2.7,37,0.00,,,0.00,WSDL version 423,2013-01-24 00:51:00,
2013-01-23 19:57:00,15.3,-4.2,-100.00,ESE,120,0.0,2.9,37,0.00,,,0.00,WSDL version 423,2013-01-24 00:57:00,
2013-01-23 20:03:00,15.1,-4.3,-100.00,SE,135,0.0,1.3,37,0.00,,,0.00,WSDL version 423,2013-01-24 01:03:00,
2013-01-23 20:09:00,14.9,-4.5,-100.00,ESE,113,0.0,2.7,37,0.00,,,0.00,WSDL version 423,2013-01-24 01:09:00,
2013-01-23 20:15:00,14.8,-4.6,-100.00,ESE,118,0.0,2.7,37,-99.99,,,-99.99,WSDL version 423,2013-01-24 01:15:00,
2013-01-23 20:21:00,14.5,-4.8,-100.00,ESE,113,0.0,0.0,37,0.00,,,0.00,WSDL version 423,2013-01-24 01:21:00,
2013-01-23 20:27:00,14.5,-4.9,-100.00,SE,127,1.1,2.5,37,0.00,,,0.00,WSDL version 423,2013-01-24 01:27:00,
2013-01-23 20:33:00,14.5,-4.8,-100.00,ESE,107,1.2,2.7,37,0.00,,,0.00,WSDL version 423,2013-01-24 01:33:00,
2013-01-23 20:39:00,14.4,-5.0,-100.00,East,90,0.4,2.7,37,0.00,,,0.00,WSDL version 423,2013-01-24 01:39:00,
2013-01-23 20:45:00,14.3,-5.1,-100.00,East,90,0.0,2.0,37,0.00,,,0.00,WSDL version 423,2013-01-24 01:45:00,
2013-01-23 20:51:00,14.1,-5.0,-100.00,East,90,0.0,0.0,38,0.00,,,0.00,WSDL version 423,2013-01-24 01:51:00,
2013-01-23 20:57:00,14.0,-4.8,-100.00,East,90,0.0,0.0,38,0.00,,,0.00,WSDL version 423,2013-01-24 01:57:00,
2013-01-23 21:03:00,13.8,-5.0,-100.00,East,90,0.0,0.0,38,0.00,,,0.00,WSDL version 423,2013-01-24 02:03:00,
2013-01-23 21:09:00,13.6,-5.2,-100.00,East,90,0.0,0.0,38,0.00,,,0.00,WSDL version 423,2013-01-24 02:09:00,
2013-01-23 21:15:00,13.6,-5.3,-100.00,East,90,0.0,0.0,38,0.00,,,0.00,WSDL version 423,2013-01-24 02:15:00,
2013-01-23 21:21:00,13.5,-5.3,-100.00,East,90,0.0,0.0,38,0.00,,,0.00,WSDL version 423,2013-01-24 02:21:00,
2013-01-23 21:27:00,13.3,-5.5,-100.00,East,90,0.0,0.0,38,0.00,,,0.00,WSDL version 423,2013-01-24 02:27:00,
2013-01-23 21:33:00,13.3,-5.5,-100.00,East,90,0.0,0.0,38,0.00,,,0.00,WSDL version 423,2013-01-24 02:33:00,
2013-01-23 21:39:00,13.1,-5.6,-100.00,East,90,0.0,0.0,38,0.00,,,0.00,WSDL version 423,2013-01-24 02:39:00,
2013-01-23 21:45:00,13.0,-5.8,-100.00,East,90,0.0,0.0,38,0.00,,,0.00,WSDL version 423,2013-01-24 02:45:00,
2013-01-23 21:51:00,12.9,-5.9,-100.00,East,90,0.0,0.0,38,0.00,,,0.00,WSDL version 423,2013-01-24 02:51:00,
2013-01-23 21:57:00,12.8,-5.9,-100.00,East,90,0.0,0.0,38,0.00,,,0.00,WSDL version 423,2013-01-24 02:57:00,
2013-01-23 22:03:00,12.7,-6.0,-100.00,East,90,0.0,0.0,38,-99.99,,,-99.99,WSDL version 423,2013-01-24 03:03:00,
2013-01-23 22:09:00,12.7,-6.0,-100.00,East,90,0.0,0.0,38,-99.99,,,-99.99,WSDL version 423,2013-01-24 03:09:00,
2013-01-23 22:15:00,12.6,-6.2,-100.00,East,90,0.0,0.0,38,-99.99,,,-99.99,WSDL version 423,2013-01-24 03:15:00,
2013-01-23 22:21:00,12.6,-6.1,-100.00,East,90,0.0,1.3,38,-99.99,,,-99.99,WSDL version 423,2013-01-24 03:21:00,
2013-01-23 22:27:00,12.9,-5.9,-100.00,East,90,0.0,1.3,38,-99.99,,,-99.99,WSDL version 423,2013-01-24 03:27:00,
2013-01-23 22:33:00,12.9,-5.8,-100.00,East,90,0.0,0.9,38,-99.99,,,-99.99,WSDL version 423,2013-01-24 03:33:00,
2013-01-23 22:39:00,12.9,-5.8,-100.00,East,90,0.0,0.0,38,0.00,,,0.00,WSDL version 423,2013-01-24 03:39:00,
2013-01-23 22:45:00,12.8,-6.0,-100.00,East,90,0.0,0.0,38,-99.99,,,-99.99,WSDL version 423,2013-01-24 03:45:00,
2013-01-23 22:51:00,12.7,-6.0,-100.00,East,90,0.0,0.0,38,-99.99,,,-99.99,WSDL version 423,2013-01-24 03:51:00,
2013-01-23 22:57:00,12.6,-6.2,-100.00,East,90,0.0,0.0,38,0.00,,,0.00,WSDL version 423,2013-01-24 03:57:00,
2013-01-23 23:03:00,12.6,-6.2,-100.00,East,90,0.0,0.0,38,0.00,,,0.00,WSDL version 423,2013-01-24 04:03:00,
2013-01-23 23:09:00,12.6,-6.2,-100.00,East,90,0.0,0.0,38,0.00,,,0.00,WSDL version 423,2013-01-24 04:09:00,
2013-01-23 23:15:00,12.7,-6.0,-100.00,East,90,0.0,0.0,38,-99.99,,,-99.99,WSDL version 423,2013-01-24 04:15:00,
2013-01-23 23:21:00,12.8,-5.9,-100.00,East,90,0.0,0.0,38,0.00,,,0.00,WSDL version 423,2013-01-24 04:21:00,
2013-01-23 23:27:00,13.1,-5.7,-100.00,East,90,0.0,0.0,38,0.00,,,0.00,WSDL version 423,2013-01-24 04:27:00,
2013-01-23 23:33:00,13.3,-5.5,-100.00,East,90,0.0,0.0,38,0.00,,,0.00,WSDL version 423,2013-01-24 04:33:00,
2013-01-23 23:39:00,13.4,-5.4,-100.00,East,90,0.0,0.0,38,0.00,,,0.00,WSDL version 423,2013-01-24 04:39:00,
2013-01-23 23:45:00,13.5,-5.3,-100.00,East,90,0.0,0.0,38,0.00,,,0.00,WSDL version 423,2013-01-24 04:45:00,
2013-01-23 23:51:00,13.5,-5.3,-100.00,East,90,0.0,0.0,38,0.00,,,0.00,WSDL version 423,2013-01-24 04:51:00,
2013-01-23 23:57:00,13.6,-5.2,-100.00,East,90,0.0,0.0,38,0.00,,,0.00,WSDL version 423,2013-01-24 04:57:00,